Location: Olsztyn
(53.7767°N, 20.4765°E)
Time: 10:48:18
(UTC+02:00)

Transit 2A Rocket - All Passes

Search period start: 15 July 2024 00:00
Search period end: 25 July 2024 00:00
Orbit: 582 x 910 km, 66.7° (Epoch: 14 July)

Date Brightness Start Highest point End Pass type
(mag) Time Alt. Az. Time Alt. Az. Time Alt. Az.
15 Jul - 00:07:22 10° NW 00:13:18 54° WSW 00:19:06 10° SSE visible
15 Jul - 01:52:15 10° WNW 01:54:35 12° W 01:56:55 10° WSW visible
15 Jul - 14:47:04 10° S 14:51:52 33° ESE 14:57:02 10° NE daylight
15 Jul - 16:28:32 10° SW 16:34:04 67° NW 16:40:04 10° NE daylight
15 Jul - 18:12:41 10° W 18:17:40 29° NNW 18:22:54 10° NE daylight
15 Jul - 19:57:14 10° NW 20:02:00 24° N 20:06:54 10° ENE daylight
15 Jul - 21:40:29 10° NW 21:46:08 38° NNE 21:51:48 10° E visible
15 Jul - 23:23:08 10° NW 23:29:15 78° SW 23:35:15 10° SSE visible
16 Jul - 01:06:43 10° WNW 01:10:57 20° WSW 01:15:08 10° SSW visible
16 Jul - 14:04:06 10° SSE 14:08:07 21° ESE 14:12:22 10° ENE daylight
16 Jul - 15:44:20 10° SW 15:49:52 87° SE 15:55:52 10° NE daylight
16 Jul - 17:27:54 10° W 17:33:06 35° NNW 17:38:36 10° NE daylight
16 Jul - 19:12:36 10° NW 19:17:20 24° N 19:22:10 10° NE daylight
16 Jul - 20:56:15 10° NW 21:01:37 32° NNE 21:07:01 10° E daylight
16 Jul - 22:38:57 10° NW 22:45:05 76° NE 22:51:07 10° SE visible
17 Jul - 00:22:00 10° NW 00:27:12 30° WSW 00:32:18 10° S visible
17 Jul - 13:21:59 10° SE 13:24:29 13° ESE 13:27:04 10° ENE daylight
17 Jul - 15:00:24 10° SSW 15:05:47 60° ESE 15:11:38 10° NE daylight
17 Jul - 16:43:14 10° WSW 16:48:37 44° NW 16:54:23 10° NE daylight
17 Jul - 18:27:51 10° WNW 18:32:39 25° N 18:37:35 10° NE daylight
17 Jul - 20:11:56 10° NW 20:17:01 27° NNE 20:22:10 10° ENE daylight
17 Jul - 21:54:47 10° NW 22:00:47 56° NE 22:06:44 10° ESE visible
17 Jul - 23:37:34 10° NW 23:43:20 45° WSW 23:48:58 10° S visible
18 Jul - 14:16:46 10° S 14:21:50 40° ESE 14:27:18 10° NE daylight
18 Jul - 15:58:43 10° WSW 16:04:15 58° NW 16:10:12 10° NE daylight
18 Jul - 17:43:03 10° WNW 17:47:59 27° NNW 17:53:07 10° NE daylight
18 Jul - 19:27:30 10° NW 19:32:22 25° N 19:37:19 10° ENE daylight
18 Jul - 21:10:37 10° NW 21:16:24 43° NNE 21:22:09 10° ESE daylight
18 Jul - 22:53:16 10° NW 22:59:19 66° SW 23:05:15 10° SSE visible
19 Jul - 00:37:19 10° WNW 00:40:50 16° WSW 00:44:19 10° SW visible
19 Jul - 13:33:32 10° SSE 13:38:01 26° ESE 13:42:47 10° NE daylight
19 Jul - 15:14:23 10° SW 15:19:58 80° NW 15:26:01 10° NE daylight
19 Jul - 16:58:15 10° W 17:03:23 32° NNW 17:08:47 10° NE daylight
19 Jul - 18:42:55 10° NW 18:47:41 24° N 18:52:32 10° NE daylight
19 Jul - 20:26:24 10° NW 20:31:54 34° NNE 20:37:25 10° E daylight
19 Jul - 22:09:04 10° NW 22:15:12 88° NE 22:21:14 10° SE visible
19 Jul - 23:52:20 10° WNW 23:57:08 25° WSW 00:01:51 10° SSW visible
20 Jul - 12:50:55 10° SE 12:54:19 17° ESE 12:57:52 10° ENE daylight
20 Jul - 14:30:19 10° SSW 14:35:50 72° SE 14:41:48 10° NE daylight
20 Jul - 16:13:31 10° W 16:18:52 39° NNW 16:24:31 10° NE daylight
20 Jul - 17:58:13 10° WNW 18:02:59 24° N 18:07:52 10° NE daylight
20 Jul - 19:42:07 10° NW 19:47:20 29° NNE 19:52:35 10° E daylight
20 Jul - 21:24:53 10° NW 21:30:58 64° NE 21:36:57 10° SE daylight
20 Jul - 23:07:47 10° NW 23:13:19 37° WSW 23:18:43 10° S visible
21 Jul - 13:46:32 10° SSW 13:51:49 48° ESE 13:57:30 10° NE daylight
21 Jul - 15:28:54 10° WSW 15:34:26 51° NW 15:40:19 10° NE daylight
21 Jul - 17:13:25 10° WNW 17:18:18 26° NNW 17:23:21 10° NE daylight
21 Jul - 18:57:43 10° NW 19:02:42 26° NNE 19:07:44 10° ENE daylight
21 Jul - 20:40:43 10° NW 20:46:36 48° NE 20:52:27 10° ESE daylight
21 Jul - 22:23:25 10° NW 22:29:22 56° WSW 22:35:10 10° SSE visible
22 Jul - 00:08:09 10° WNW 00:10:40 13° W 00:13:10 10° SW visible
22 Jul - 13:03:05 10° S 13:07:56 32° ESE 13:13:05 10° NE daylight
22 Jul - 14:44:29 10° SW 14:50:06 69° NW 14:56:08 10° NE daylight
22 Jul - 16:28:36 10° W 16:33:40 30° NNW 16:38:57 10° NE daylight
22 Jul - 18:13:11 10° NW 18:18:00 24° N 18:22:54 10° ENE daylight
22 Jul - 19:56:31 10° NW 20:02:09 38° NNE 20:07:47 10° E daylight
22 Jul - 21:39:10 10° NW 21:45:17 80° SW 21:51:16 10° SSE visible
22 Jul - 23:22:43 10° WNW 23:27:02 21° WSW 23:31:15 10° SSW visible
23 Jul - 12:20:08 10° SSE 12:24:09 21° ESE 12:28:24 10° ENE daylight
23 Jul - 14:00:17 10° SW 14:05:53 85° SE 14:11:56 10° NE daylight
23 Jul - 15:43:49 10° W 15:49:05 35° NNW 15:54:39 10° NE daylight
23 Jul - 17:28:32 10° NW 17:33:18 24° N 17:38:10 10° NE daylight
23 Jul - 19:12:15 10° NW 19:17:36 31° NNE 19:22:58 10° E daylight
23 Jul - 20:54:57 10° NW 21:01:06 74° NE 21:07:06 10° SE daylight
23 Jul - 22:38:00 10° NW 22:43:15 31° WSW 22:48:22 10° S visible
24 Jul - 11:38:06 10° SE 11:40:31 13° E 11:43:00 10° ENE daylight
24 Jul - 13:16:21 10° SSW 13:21:48 59° ESE 13:27:40 10° NE daylight
24 Jul - 14:59:08 10° WSW 15:04:37 45° NW 15:10:25 10° NE daylight
24 Jul - 16:43:45 10° WNW 16:48:36 25° N 16:53:35 10° NE daylight
24 Jul - 18:27:54 10° NW 18:32:59 27° NNE 18:38:07 10° ENE daylight
24 Jul - 20:10:47 10° NW 20:16:48 55° NE 20:22:41 10° ESE daylight
24 Jul - 21:53:33 10° NW 21:59:22 46° WSW 22:04:59 10° S visible
